VJT85 KDSM-KRIC

Flight info

Callsign VJT85
Flight time N/A
Altitude 37000
Route IOW MZV BDF PNT VHP HVQ J24 MOL SPIDR5
Aircraft CL60/M-SADE3FGHIJ3J4J7P2RWXY/HB1D1

Departure

Time 2026-05-08 11:48
Airport Des Moines International Airport (KDSM)

Arrival

Time N/A
Airport Richmond International Airport (KRIC)
Time Latitude Longitude Altitude Speed Heading
2026-05-08 11:21 41.52998 -93.65817 934 ft 0 kts 257°
2026-05-08 11:40 41.52999 -93.65825 933 ft 2 kts 307°
2026-05-08 11:41 41.53017 -93.65857 932 ft 7 kts 289°
2026-05-08 11:41 41.53035 -93.65954 929 ft 13 kts 281°
2026-05-08 11:41 41.53061 -93.66047 927 ft 12 kts 324°
2026-05-08 11:41 41.53136 -93.66006 928 ft 12 kts 53°
2026-05-08 11:42 41.53188 -93.65910 931 ft 12 kts 55°
2026-05-08 11:42 41.53241 -93.65815 935 ft 12 kts 52°
2026-05-08 11:42 41.53291 -93.65726 938 ft 12 kts 54°
2026-05-08 11:42 41.53347 -93.65633 939 ft 13 kts 50°
2026-05-08 11:43 41.53402 -93.65570 940 ft 9 kts
2026-05-08 11:43 41.53462 -93.65623 939 ft 13 kts 312°
2026-05-08 11:43 41.53534 -93.65729 937 ft 17 kts 309°
2026-05-08 11:43 41.53627 -93.65869 933 ft 22 kts 315°
2026-05-08 11:44 41.53744 -93.66038 927 ft 27 kts 312°
2026-05-08 11:44 41.53880 -93.66235 921 ft 23 kts 315°
2026-05-08 11:44 41.53972 -93.66357 919 ft 13 kts 313°
2026-05-08 11:44 41.54043 -93.66479 916 ft 18 kts 304°
2026-05-08 11:45 41.54139 -93.66621 914 ft 22 kts 315°
2026-05-08 11:45 41.54176 -93.66672 914 ft 0 kts 313°
2026-05-08 11:45 41.54199 -93.66704 914 ft 9 kts 315°
2026-05-08 11:45 41.54252 -93.66780 914 ft 12 kts 312°
2026-05-08 11:46 41.54319 -93.66878 913 ft 16 kts 312°
2026-05-08 11:46 41.54408 -93.67007 910 ft 21 kts 312°
2026-05-08 11:46 41.54518 -93.67165 907 ft 25 kts 310°
2026-05-08 11:46 41.54589 -93.67270 902 ft 11 kts 313°
2026-05-08 11:47 41.54604 -93.67371 899 ft 13 kts 228°
2026-05-08 11:47 41.54532 -93.67412 897 ft 10 kts 120°
2026-05-08 11:47 41.54517 -93.67382 898 ft 0 kts 133°
2026-05-08 11:47 41.54515 -93.67380 898 ft 9 kts 133°
2026-05-08 11:48 41.54209 -93.66930 910 ft 115 kts 132°
2026-05-08 11:48 41.53493 -93.65906 1186 ft 170 kts 133°
2026-05-08 11:48 41.52675 -93.64742 2027 ft 187 kts 132°
2026-05-08 11:48 41.51772 -93.63377 2728 ft 204 kts 131°
2026-05-08 11:49 41.50840 -93.61932 3168 ft 204 kts 131°
2026-05-08 11:49 41.49910 -93.60485 3556 ft 206 kts 131°
2026-05-08 11:49 41.48958 -93.59010 3946 ft 212 kts 131°
2026-05-08 11:49 41.47899 -93.57375 4476 ft 253 kts 131°
2026-05-08 11:50 41.46781 -93.55451 5234 ft 275 kts 117°
2026-05-08 11:50 41.45995 -93.53061 6128 ft 284 kts 110°
2026-05-08 11:50 41.45273 -93.50591 7234 ft 291 kts 110°
2026-05-08 11:50 41.44549 -93.48067 8317 ft 304 kts 110°
2026-05-08 11:51 41.43799 -93.45396 9512 ft 315 kts 110°
2026-05-08 11:51 41.43027 -93.42609 10795 ft 324 kts 110°
2026-05-08 11:51 41.42252 -93.39773 12053 ft 330 kts 110°
2026-05-08 11:51 41.41499 -93.36851 13227 ft 338 kts 105°
2026-05-08 11:52 41.40762 -93.33887 14310 ft 343 kts 120°
2026-05-08 11:52 41.39422 -93.31290 15341 ft 347 kts 129°
2026-05-08 11:52 41.38028 -93.28618 16347 ft 355 kts 127°
2026-05-08 11:52 41.36820 -93.25803 17356 ft 362 kts 112°
2026-05-08 11:53 41.36398 -93.22446 18313 ft 367 kts 85°
2026-05-08 11:53 41.36710 -93.19036 19139 ft 374 kts 79°
2026-05-08 11:53 41.37078 -93.15589 19952 ft 381 kts 80°
2026-05-08 11:53 41.37442 -93.12101 20805 ft 387 kts 80°
2026-05-08 11:54 41.37813 -93.08534 21582 ft 393 kts 80°
2026-05-08 11:54 41.38181 -93.04964 22366 ft 398 kts 80°
2026-05-08 11:54 41.38558 -93.01304 23106 ft 404 kts 80°
2026-05-08 11:54 41.38942 -92.97558 23819 ft 411 kts 79°
2026-05-08 11:55 41.39324 -92.93812 24528 ft 416 kts 80°
2026-05-08 11:55 41.39712 -92.89982 25259 ft 421 kts 80°
2026-05-08 11:55 41.40105 -92.86089 25959 ft 426 kts 80°
2026-05-08 11:55 41.40497 -92.82195 26648 ft 430 kts 79°
2026-05-08 11:56 41.40891 -92.78252 27310 ft 433 kts 79°
2026-05-08 11:56 41.41285 -92.74307 27900 ft 438 kts 80°
2026-05-08 11:56 41.41686 -92.70273 28460 ft 443 kts 79°
2026-05-08 11:56 41.42092 -92.66168 29047 ft 447 kts 79°
2026-05-08 11:57 41.42492 -92.62106 29631 ft 450 kts 80°
2026-05-08 11:57 41.42902 -92.57925 30141 ft 454 kts 80°
2026-05-08 11:57 41.43309 -92.53766 30628 ft 458 kts 80°
2026-05-08 11:57 41.43717 -92.49575 31110 ft 462 kts 80°
2026-05-08 11:58 41.44132 -92.45299 31519 ft 467 kts 80°
2026-05-08 11:58 41.44545 -92.41015 31965 ft 471 kts 80°
2026-05-08 11:58 41.44966 -92.36637 32323 ft 476 kts 80°
2026-05-08 11:59 41.45800 -92.27892 33048 ft 483 kts 81°
2026-05-08 11:59 41.46220 -92.23471 33350 ft 487 kts 81°
2026-05-08 11:59 41.46646 -92.18970 33692 ft 490 kts 81°
2026-05-08 11:59 41.47068 -92.14478 34093 ft 491 kts 81°
2026-05-08 12:00 41.47486 -92.10017 34489 ft 491 kts 81°
2026-05-08 12:00 41.47907 -92.05499 34845 ft 490 kts 81°
2026-05-08 12:00 41.48322 -92.01029 35201 ft 489 kts 81°
2026-05-08 12:00 41.48737 -91.96540 35506 ft 488 kts 81°
2026-05-08 12:01 41.49150 -91.92061 35764 ft 488 kts 81°
2026-05-08 12:01 41.49564 -91.87548 36031 ft 488 kts 81°
2026-05-08 12:01 41.49973 -91.83063 36329 ft 489 kts 81°
2026-05-08 12:01 41.50381 -91.78573 36684 ft 488 kts 81°
2026-05-08 12:02 41.50784 -91.74125 36867 ft 492 kts 81°
2026-05-08 12:02 41.51197 -91.69543 36886 ft 499 kts 81°
2026-05-08 12:02 41.51312 -91.60201 36895 ft 516 kts 96°
2026-05-08 12:03 41.49815 -91.50780 36874 ft 528 kts 106°
2026-05-08 12:03 41.47903 -91.41197 36887 ft 539 kts 106°
2026-05-08 12:04 41.45961 -91.31497 36889 ft 549 kts 107°
2026-05-08 12:04 41.43978 -91.21644 36892 ft 555 kts 107°
2026-05-08 12:05 41.41989 -91.11816 36887 ft 556 kts 107°
2026-05-08 12:05 41.40015 -91.02107 36889 ft 556 kts 107°
2026-05-08 12:06 41.37997 -90.92236 36881 ft 556 kts 106°
2026-05-08 12:06 41.35964 -90.82340 36880 ft 556 kts 107°
2026-05-08 12:07 41.33926 -90.72467 36889 ft 556 kts 106°
2026-05-08 12:07 41.31913 -90.62538 36887 ft 557 kts 103°
2026-05-08 12:08 41.30402 -90.52484 36893 ft 558 kts 101°
2026-05-08 12:08 41.28901 -90.42406 36894 ft 558 kts 101°
2026-05-08 12:09 41.27378 -90.32266 36900 ft 558 kts 102°
2026-05-08 12:09 41.25856 -90.22214 36897 ft 558 kts 102°
2026-05-08 12:10 41.24318 -90.12123 36895 ft 559 kts 102°
2026-05-08 12:10 41.22773 -90.02056 36901 ft 559 kts 102°
2026-05-08 12:11 41.21205 -89.91911 36899 ft 560 kts 102°
2026-05-08 12:11 41.19644 -89.81872 36900 ft 560 kts 102°
2026-05-08 12:12 41.18061 -89.71762 36902 ft 560 kts 102°
2026-05-08 12:12 41.16375 -89.61724 36895 ft 560 kts 107°
2026-05-08 12:13 41.13445 -89.52281 36898 ft 556 kts 120°
2026-05-08 12:13 41.09882 -89.43179 36898 ft 556 kts 120°
2026-05-08 12:14 41.06325 -89.34116 36900 ft 556 kts 121°
2026-05-08 12:14 41.02764 -89.25071 36902 ft 556 kts 121°
2026-05-08 12:15 40.99187 -89.16019 36903 ft 556 kts 121°
2026-05-08 12:15 40.95595 -89.06960 36905 ft 557 kts 121°
2026-05-08 12:16 40.92016 -88.97962 36922 ft 557 kts 121°
2026-05-08 12:16 40.88397 -88.88895 36919 ft 557 kts 121°
2026-05-08 12:17 40.84776 -88.79850 36922 ft 558 kts 121°
2026-05-08 12:17 40.81143 -88.70834 36925 ft 558 kts 122°
2026-05-08 12:18 40.77467 -88.61868 36929 ft 558 kts 122°
2026-05-08 12:18 40.73785 -88.52914 36926 ft 559 kts 122°
2026-05-08 12:19 40.70079 -88.43928 36943 ft 559 kts 122°
2026-05-08 12:19 40.66368 -88.34959 36936 ft 559 kts 123°
2026-05-08 12:20 40.62644 -88.25983 36936 ft 559 kts 123°
2026-05-08 12:20 40.58948 -88.17100 36946 ft 559 kts 122°
2026-05-08 12:21 40.55307 -88.08382 36950 ft 560 kts 122°
2026-05-08 12:21 40.51573 -87.99460 36951 ft 560 kts 122°
2026-05-08 12:22 40.47789 -87.90447 36952 ft 561 kts 122°
2026-05-08 12:22 40.44015 -87.81482 36955 ft 561 kts 123°
2026-05-08 12:23 40.40223 -87.72502 36957 ft 561 kts 122°
2026-05-08 12:23 40.36451 -87.63595 36961 ft 562 kts 123°
2026-05-08 12:24 40.32643 -87.54633 36969 ft 563 kts 123°
2026-05-08 12:24 40.28830 -87.45682 36970 ft 564 kts 123°
2026-05-08 12:25 40.25030 -87.36787 36969 ft 564 kts 123°
2026-05-08 12:25 40.21185 -87.27817 36963 ft 563 kts 124°
2026-05-08 12:26 40.17326 -87.18835 36969 ft 563 kts 124°
2026-05-08 12:26 40.13489 -87.09934 36971 ft 564 kts 124°
2026-05-08 12:27 40.09647 -87.01048 36973 ft 565 kts 124°
2026-05-08 12:27 40.05779 -86.92127 36981 ft 565 kts 124°
2026-05-08 12:28 40.01897 -86.83199 36980 ft 566 kts 124°
2026-05-08 12:28 39.98009 -86.74285 36980 ft 566 kts 124°
2026-05-08 12:29 39.94115 -86.65382 36982 ft 567 kts 124°
2026-05-08 12:29 39.90203 -86.56463 36981 ft 568 kts 124°
2026-05-08 12:30 39.86282 -86.47549 36989 ft 568 kts 124°
2026-05-08 12:30 39.82395 -86.38696 36990 ft 569 kts 122°
2026-05-08 12:31 39.79258 -86.29189 36990 ft 574 kts 114°
2026-05-08 12:31 39.76414 -86.19477 36993 ft 574 kts 114°
2026-05-08 12:32 39.73579 -86.09850 36994 ft 576 kts 114°
2026-05-08 12:32 39.70696 -86.00100 36992 ft 576 kts 114°
2026-05-08 12:33 39.67857 -85.90537 36992 ft 577 kts 114°
2026-05-08 12:33 39.64885 -85.80565 36995 ft 577 kts 114°
2026-05-08 12:34 39.61898 -85.70586 36991 ft 578 kts 114°
2026-05-08 12:34 39.58943 -85.60747 36993 ft 579 kts 114°
2026-05-08 12:35 39.55934 -85.50768 36997 ft 579 kts 114°
2026-05-08 12:35 39.52898 -85.40739 37000 ft 580 kts 114°
2026-05-08 12:36 39.49940 -85.31004 37000 ft 580 kts 115°
2026-05-08 12:36 39.46971 -85.21271 37006 ft 581 kts 115°
2026-05-08 12:37 39.44004 -85.11578 37003 ft 581 kts 115°
2026-05-08 12:37 39.40995 -85.01783 37011 ft 582 kts 115°
2026-05-08 12:38 39.37979 -84.92000 37020 ft 582 kts 115°
2026-05-08 12:38 39.34948 -84.82204 37021 ft 583 kts 115°
2026-05-08 12:39 39.31889 -84.72351 37024 ft 583 kts 115°
2026-05-08 12:39 39.28830 -84.62536 37028 ft 583 kts 115°
2026-05-08 12:40 39.25765 -84.52738 37037 ft 584 kts 115°
2026-05-08 12:40 39.22697 -84.42963 37041 ft 585 kts 115°
2026-05-08 12:41 39.19597 -84.33119 37049 ft 584 kts 115°
2026-05-08 12:41 39.16526 -84.23404 37031 ft 584 kts 116°
2026-05-08 12:42 39.13463 -84.13747 37042 ft 584 kts 116°
2026-05-08 12:42 39.10432 -84.04224 37057 ft 585 kts 115°
2026-05-08 12:43 39.07282 -83.94363 37051 ft 586 kts 115°
2026-05-08 12:43 39.04183 -83.84695 37050 ft 586 kts 115°
2026-05-08 12:44 39.01072 -83.75015 37056 ft 587 kts 115°
2026-05-08 12:44 38.97963 -83.65382 37055 ft 588 kts 115°
2026-05-08 12:45 38.94828 -83.55705 37055 ft 588 kts 116°
2026-05-08 12:45 38.91684 -83.46030 37057 ft 588 kts 116°
2026-05-08 12:46 38.88515 -83.36314 37059 ft 589 kts 116°
2026-05-08 12:46 38.85353 -83.26649 37060 ft 588 kts 116°
2026-05-08 12:47 38.82196 -83.17035 37058 ft 588 kts 116°
2026-05-08 12:47 38.79019 -83.07391 37067 ft 589 kts 117°
2026-05-08 12:48 38.75823 -82.97722 37068 ft 590 kts 117°
2026-05-08 12:48 38.72619 -82.88060 37063 ft 590 kts 117°
2026-05-08 12:49 38.69409 -82.78417 37060 ft 590 kts 116°
2026-05-08 12:49 38.66179 -82.68745 37062 ft 591 kts 117°
2026-05-08 12:50 38.62960 -82.59135 37067 ft 591 kts 117°
2026-05-08 12:50 38.59709 -82.49464 37066 ft 591 kts 117°
2026-05-08 12:51 38.54836 -82.35026 37081 ft 591 kts 117°
2026-05-08 12:52 38.51551 -82.25335 37069 ft 592 kts 117°
2026-05-08 12:52 38.46597 -82.10783 37065 ft 592 kts 118°
2026-05-08 12:53 38.43190 -82.00815 37070 ft 593 kts 117°
2026-05-08 12:53 38.39835 -81.91035 37080 ft 594 kts 118°
2026-05-08 12:54 38.36509 -81.81335 37062 ft 595 kts 116°
2026-05-08 12:54 38.34042 -81.71072 37072 ft 600 kts 103°
2026-05-08 12:55 38.32403 -81.60627 37071 ft 601 kts 102°
2026-05-08 12:55 38.30764 -81.50244 37061 ft 601 kts 102°
2026-05-08 12:56 38.29106 -81.39815 37080 ft 601 kts 102°
2026-05-08 12:56 38.27449 -81.29460 37078 ft 600 kts 103°
2026-05-08 12:57 38.25755 -81.18931 37088 ft 594 kts 103°
2026-05-08 12:57 38.24092 -81.08657 37093 ft 585 kts 103°
2026-05-08 12:58 38.22447 -80.98568 37052 ft 579 kts 103°
2026-05-08 12:58 38.20816 -80.88620 36980 ft 575 kts 103°
2026-05-08 12:59 38.19181 -80.78706 36793 ft 574 kts 103°
2026-05-08 12:59 38.17525 -80.68725 36833 ft 574 kts 103°
2026-05-08 13:00 38.16708 -80.63821 36503 ft 575 kts 103°
2026-05-08 13:00 38.15877 -80.58852 36311 ft 577 kts 103°
2026-05-08 13:00 38.14194 -80.48814 35699 ft 576 kts 103°
2026-05-08 13:01 38.12523 -80.38905 35448 ft 575 kts 103°
2026-05-08 13:01 38.11684 -80.33946 35407 ft 564 kts 104°
2026-05-08 13:01 38.10855 -80.29055 34833 ft 562 kts 105°
2026-05-08 13:02 38.10019 -80.24149 33902 ft 568 kts 104°
2026-05-08 13:02 38.09174 -80.19204 33130 ft 568 kts 104°
2026-05-08 13:02 38.08322 -80.14229 32786 ft 570 kts 104°
2026-05-08 13:02 38.07494 -80.09408 32487 ft 574 kts 104°
2026-05-08 13:03 38.06628 -80.04378 32206 ft 576 kts 104°
2026-05-08 13:03 38.05770 -79.99403 31922 ft 572 kts 104°
2026-05-08 13:03 38.04933 -79.94561 31630 ft 570 kts 104°
2026-05-08 13:03 38.04081 -79.89645 31366 ft 567 kts 104°
2026-05-08 13:04 38.03237 -79.84790 31079 ft 563 kts 104°
2026-05-08 13:04 38.02396 -79.79969 30818 ft 561 kts 104°
2026-05-08 13:04 38.01552 -79.75139 30552 ft 559 kts 105°
2026-05-08 13:04 38.00714 -79.70357 30195 ft 558 kts 105°
2026-05-08 13:05 37.99871 -79.65557 29488 ft 557 kts 105°
2026-05-08 13:05 37.99034 -79.60808 28791 ft 554 kts 104°
2026-05-08 13:05 37.98197 -79.56066 28064 ft 550 kts 104°
2026-05-08 13:05 37.97362 -79.51351 27308 ft 546 kts 104°
2026-05-08 13:06 37.96537 -79.46703 26625 ft 541 kts 104°
2026-05-08 13:06 37.95717 -79.42088 25901 ft 536 kts 104°
2026-05-08 13:06 37.94895 -79.37483 25183 ft 530 kts 104°
2026-05-08 13:06 37.94088 -79.32968 24474 ft 524 kts 104°
2026-05-08 13:07 37.93288 -79.28500 23789 ft 518 kts 104°
2026-05-08 13:07 37.92493 -79.24073 23090 ft 511 kts 104°
2026-05-08 13:07 37.91706 -79.19704 22417 ft 503 kts 104°
2026-05-08 13:07 37.90924 -79.15370 21746 ft 495 kts 104°
2026-05-08 13:08 37.90148 -79.11158 21105 ft 487 kts 105°
2026-05-08 13:08 37.89263 -79.06962 20507 ft 478 kts 106°
2026-05-08 13:08 37.88898 -79.05266 20345 ft 471 kts 106°
2026-05-08 13:08 37.88528 -79.03461 20256 ft 462 kts 103°